星链-31980 (STARLINK-31980 )

导读 | 豆包AI

STARLINK-31980是美国太空探索技术公司星链计划的组网卫星,于2024年6月5日发射升空,属于低轨卫星星座的组成部分,旨在为全球提供高速宽带互联网服务,覆盖偏远、通信基础设施薄弱区域,推动全球网络连通性,也助力地面物联网、航空航海等场景的互联服务拓展。

基本信息
目录编号:
59962
目录名称:
STARLINK-31980
国际标识:
2024-107T
轨道中心:
EARTH
卫星名称:
星链-31980
卫星全名:
星链-31980 (STARLINK-31980 )
卫星状态:
在轨 (已飞行648 天)
发射日期:
2024-06-05 UTC
国别 :
美国 (US)
星等 :
--
轨道信息
数据来源 国际轨道数据
星历时间: 2026-03-15T12:00:04+0800
15小时前
查看轨道信息
半长轴: 6853.428km
偏心率: 0.0001158
轨道倾角: 53.163°
近地点辐角 99.772°
升交点赤经 40.185°
平近点角 260.342°
近地点: 474.497km
远地点: 476.085km
周期: 94.107分钟
每日圈数: 15.301748
详细信息
固有亮度:
5
最大亮度:
1.5
卫星平台:
Starlink v2.0 mini
覆盖范围:
全球
运营商:
太空探索技术公司
运营商所在国:
美国
制造商(研发单位):
太空探索技术公司
制造商所在国:
美国
使用方式:
暂无
卫星简介
星链(Starlink)计划是由太空探索技术公司(SpaceX)提出的一个巨型低轨卫星互联网星座项目,计划在2019年至2024年间在太空搭建由约1.2万颗卫星组成的“星链”网络,其中1584颗将部署在地球上空550千米处的近地轨道,并从2020年开始工作。该卫星仍在工作。
2D轨道图
3D轨道图
轨道高度分析图
轨道倾角分析图
轨道综合分析图
查看轨道综合分析图